TimeCST,TemperatureF,Dew PointF,Humidity,Sea Level PressureIn,VisibilityMPH,Wind Direction,Wind SpeedMPH,Gust SpeedMPH,PrecipitationIn,Events,Conditions,WindDirDegrees,DateUTC
12:53 AM,53.1,48.0,83,30.01,10.0,South,12.7,-,N/A,,Clear,190,2012-11-19 06:53:00
1:53 AM,51.1,48.0,89,30.01,10.0,South,12.7,-,N/A,,Clear,190,2012-11-19 07:53:00
2:53 AM,50.0,48.0,93,30.02,10.0,South,12.7,-,N/A,,Clear,190,2012-11-19 08:53:00
3:53 AM,50.0,48.0,93,30.02,10.0,SE,3.5,-,N/A,,Clear,140,2012-11-19 09:53:00
4:53 AM,46.9,46.9,100,30.03,10.0,NNE,10.4,-,N/A,,Clear,20,2012-11-19 10:53:00
5:51 AM,42.8,42.8,100,30.06,0.8,Calm,Calm,-,N/A,,Clear,0,2012-11-19 11:51:00
5:53 AM,42.1,42.1,100,30.05,0.5,Calm,Calm,-,N/A,Fog,Fog,0,2012-11-19 11:53:00
6:02 AM,42.8,42.8,100,30.07,0.2,Calm,Calm,-,N/A,Fog,Fog,0,2012-11-19 12:02:00
6:20 AM,44.6,44.6,100,30.08,1.2,WSW,10.4,-,N/A,,Partly Cloudy,240,2012-11-19 12:20:00
6:23 AM,44.6,44.6,100,30.08,3.0,WSW,8.1,-,N/A,,Partly Cloudy,240,2012-11-19 12:23:00
6:53 AM,44.1,44.1,100,30.07,4.0,Calm,Calm,-,N/A,,Clear,0,2012-11-19 12:53:00
6:56 AM,42.8,42.8,100,30.09,1.8,West,3.5,-,N/A,,Clear,270,2012-11-19 12:56:00
6:58 AM,42.8,42.8,100,30.09,0.8,West,4.6,-,N/A,,Mist,260,2012-11-19 12:58:00
7:53 AM,39.0,39.0,100,30.10,0.2,West,3.5,-,N/A,Fog,Fog,260,2012-11-19 13:53:00
8:16 AM,42.8,42.8,100,30.11,1.2,SSW,5.8,-,N/A,,Partly Cloudy,210,2012-11-19 14:16:00
8:20 AM,42.8,42.8,100,30.11,3.0,SSW,8.1,-,N/A,,Partly Cloudy,200,2012-11-19 14:20:00
8:53 AM,46.9,46.0,97,30.11,10.0,West,5.8,-,N/A,,Clear,280,2012-11-19 14:53:00
9:53 AM,52.0,45.0,77,30.10,10.0,WNW,4.6,-,N/A,,Clear,290,2012-11-19 15:53:00
10:53 AM,60.1,44.1,55,30.11,10.0,East,4.6,-,N/A,,Clear,80,2012-11-19 16:53:00
11:53 AM,66.0,43.0,43,30.09,10.0,Calm,Calm,-,N/A,,Clear,0,2012-11-19 17:53:00
12:53 PM,69.1,44.1,40,30.08,10.0,Variable,3.5,-,N/A,,Clear,0,2012-11-19 18:53:00
1:53 PM,70.0,43.0,38,30.06,10.0,Variable,4.6,-,N/A,,Clear,0,2012-11-19 19:53:00
2:53 PM,72.0,42.1,34,30.06,10.0,ENE,5.8,-,N/A,,Clear,60,2012-11-19 20:53:00
3:53 PM,72.0,44.1,37,30.06,10.0,NE,6.9,-,N/A,,Clear,40,2012-11-19 21:53:00
4:53 PM,66.9,44.1,44,30.09,10.0,NE,6.9,-,N/A,,Clear,40,2012-11-19 22:53:00
5:53 PM,59.0,43.0,55,30.12,10.0,NNE,4.6,-,N/A,,Clear,30,2012-11-19 23:53:00
6:53 PM,51.1,42.1,71,30.16,10.0,Calm,Calm,-,N/A,,Clear,0,2012-11-20 00:53:00
7:53 PM,48.0,41.0,77,30.18,10.0,Calm,Calm,-,N/A,,Clear,0,2012-11-20 01:53:00
8:53 PM,46.0,41.0,83,30.18,10.0,SSW,4.6,-,N/A,,Clear,200,2012-11-20 02:53:00
9:53 PM,43.0,39.0,86,30.18,10.0,Calm,Calm,-,N/A,,Clear,0,2012-11-20 03:53:00
10:53 PM,41.0,39.0,93,30.16,10.0,SW,4.6,-,N/A,,Clear,220,2012-11-20 04:53:00
11:53 PM,43.0,39.9,89,30.16,10.0,WSW,4.6,-,N/A,,Clear,250,2012-11-20 05:53:00